Location: Baia Mare
(47.6567°N, 23.5850°E)
Time: 12:05:50
(UTC+03:00)

ISS - Pass Details

Date: 24 September 2019
Orbit: 418 x 420 km, 51.6° (Epoch: 10 August)

Event Time Altitude Azimuth Distance (km) Brightness Sun altitude
Rises 22:20:35 0° 284° (WNW) 2,428 1.1 -29.3°
Reaches altitude 10° 22:22:46 10° 292° (WNW) 1,559 0.0 -29.6°
Enters shadow 22:23:50 18° 299° (WNW) 1,168 -0.8 -29.8°
